Ames, IA

4:52 PM CST on February 12, 2016 (GMT -0600)
Ames Municipal

Weather History for KAMW - May, 2014

Change the Weather History Date:

Tuesday, May 27, 2014

  Actual Average Record
Temperature  
Mean Temperature 72 °F 64 °F  
Max Temperature 82 °F 76 °F 91 °F (2012)
Min Temperature 61 °F 53 °F 46 °F (1997)
Degree Days  
Heating Degree Days 0 3  
Month to date heating degree days 184 175  
Since 1 July heating degree days 7623 6797  
Cooling Degree Days 7 3  
Month to date cooling degree days 33 34  
Year to date cooling degree days 40 37  
Growing Degree Days 22 (Base 50)    
Moisture  
Dew Point 63 °F    
Average Humidity 76    
Maximum Humidity 100    
Minimum Humidity 51    
Precipitation  
Precipitation T in 0.13 in 1.35 in (1987)
Month to date precipitation 5.10 4.04  
Sea Level Pressure  
Sea Level Pressure 29.90 in    
Wind  
Wind Speed 5 mph (West)    
Max Wind Speed 15 mph    
Max Gust Speed 18 mph    
Visibility 10 miles    
Events Rain    
T = Trace of Precipitation, MM = Missing Value Source: NWS Daily Summary

Daily Weather History Graph

Daily Weather History Graph

Search for Another Location

Airport or City:

Trip Planner

Search our weather history database for the weather conditions in past years. The results will help you decide how hot, cold, wet, or windy it might be!

Date:

Astronomy

May. 27, 2014 Rise Set
Actual Time 5:44 AM CDT 8:39 PM CDT
Civil Twilight 5:11 AM CDT 9:12 PM CDT
Nautical Twilight 4:29 AM CDT 9:55 PM CDT
Astronomical Twilight 3:40 AM CDT 10:44 PM CDT
Moon 5:08 AM CDT (5/27) 7:41 PM CDT (5/27)
Length of Visible Light 16h 01m
Length of Day
14h 55m
Waning Crescent, 1% of the Moon is Illuminated
May 27
Waning Crescent
May 28
New
Jun 5
First Quarter
Jun 12
Full
Jun 19
Last Quarter

Hourly Weather History & Observations

Time (CDT) Temp. Heat Index Dew Point Humidity Pressure Visibility Wind Dir Wind Speed Gust Speed Precip Events Conditions
12:53 AM 64.0 °F - 62.1 °F 93% 29.92 in 8.0 mi South 10.4 mph - 0.02 in Rain Light Rain
1:27 AM 64.0 °F - 62.1 °F 93% 29.94 in 10.0 mi South 9.2 mph - 0.00 in   Mostly Cloudy
1:53 AM 64.0 °F - 62.1 °F 93% 29.91 in 10.0 mi South 6.9 mph - 0.00 in   Overcast
2:53 AM 64.0 °F - 61.0 °F 90% 29.89 in 10.0 mi SW 8.1 mph - N/A   Clear
3:53 AM 64.0 °F - 62.1 °F 93% 29.86 in 10.0 mi SW 10.4 mph - N/A   Clear
4:53 AM 63.0 °F - 61.0 °F 93% 29.87 in 10.0 mi Calm Calm - N/A   Clear
5:53 AM 61.0 °F - 60.1 °F 97% 29.90 in 10.0 mi Calm Calm - N/A   Clear
6:53 AM 63.0 °F - 61.0 °F 93% 29.91 in 9.0 mi Calm Calm - N/A   Clear
7:53 AM 66.0 °F - 62.1 °F 87% 29.92 in 10.0 mi North 4.6 mph - N/A   Clear
8:53 AM 68.0 °F - 63.0 °F 84% 29.92 in 10.0 mi Calm Calm - N/A   Clear
9:53 AM 72.0 °F - 64.0 °F 76% 29.92 in 10.0 mi SE 6.9 mph - N/A   Clear
10:53 AM 75.0 °F - 63.0 °F 66% 29.94 in 10.0 mi Calm Calm - N/A   Clear
11:53 AM 77.0 °F - 64.0 °F 64% 29.94 in 10.0 mi WNW 9.2 mph - N/A   Clear
12:53 PM 78.1 °F - 66.0 °F 66% 29.93 in 10.0 mi SW 8.1 mph - N/A   Scattered Clouds
1:53 PM 80.1 °F 81.9 °F 64.9 °F 60% 29.91 in 10.0 mi WNW 8.1 mph - N/A   Clear
2:53 PM 79.0 °F - 63.0 °F 58% 29.89 in 10.0 mi WNW 10.4 mph - N/A   Clear
3:53 PM 81.0 °F 82.5 °F 64.0 °F 56% 29.90 in 10.0 mi West 10.4 mph - N/A   Clear
4:53 PM 82.0 °F 83.1 °F 63.0 °F 52% 29.89 in 10.0 mi NW 8.1 mph - N/A   Clear
5:53 PM 81.0 °F 82.2 °F 63.0 °F 54% 29.88 in 10.0 mi Variable 4.6 mph - N/A   Partly Cloudy
6:53 PM 79.0 °F - 63.0 °F 58% 29.87 in 10.0 mi NW 5.8 mph - N/A   Partly Cloudy
7:53 PM 77.0 °F - 66.0 °F 69% 29.88 in 10.0 mi NNE 3.5 mph - N/A   Clear
8:53 PM 75.0 °F - 64.9 °F 71% 29.88 in 10.0 mi NNE 3.5 mph - N/A   Clear
9:53 PM 72.0 °F - 66.0 °F 81% 29.90 in 10.0 mi Calm Calm - N/A   Partly Cloudy
10:53 PM 71.1 °F - 66.0 °F 84% 29.91 in 10.0 mi West 6.9 mph - N/A   Mostly Cloudy
11:53 PM 70.0 °F - 64.9 °F 84% 29.91 in 10.0 mi Calm Calm - N/A   Clear